Weather History for Ingleside, TX

Change the Weather History Date:

Saturday, October 13, 2012

  Actual Average Record
Temperature  
Mean Temperature 84 °F -  
Max Temperature 88 °F - - ()
Min Temperature 79 °F - - ()
Cooling Degree Days 18    
Growing Degree Days 34 (Base 50)    
Moisture  
Dew Point 74 °F    
Average Humidity 74    
Maximum Humidity 81    
Minimum Humidity 63    
Precipitation  
Precipitation 0.00 in - - ()
Sea Level Pressure  
Sea Level Pressure 30.00 in    
Wind  
Wind Speed 15 mph (SSE)    
Max Wind Speed 25 mph    
Max Gust Speed 31 mph    
Visibility 10 miles    
Events      
T = Trace of Precipitation, MM = Missing Value Source: NWS Daily Summary

Daily Weather History Graph

Daily Weather History Graph

Search for Another Location

Airport:

Trip Planner

Search our weather history database for the weather conditions in past years. The results will help you decide how hot, cold, wet, or windy it might be!

Date:

Astronomy

Oct. 13, 2012 Rise Set
Actual Time 7:28 AM CDT 7:01 PM CDT
Civil Twilight 7:04 AM CDT 7:24 PM CDT
Nautical Twilight 6:37 AM CDT 7:51 PM CDT
Astronomical Twilight 6:10 AM CDT 8:19 PM CDT
Moon 5:27 AM CDT (10/13) 5:40 PM CDT (10/13)
Length of Visible Light 12h 19m
Length of Day
11h 32m
Waning Crescent, 5% of the Moon is Illuminated
Oct 13
Waning Crescent
Oct 15
New
Oct 21
First Quarter
Oct 29
Full
Nov 6
Last Quarter

Hourly Weather History & Observations

Time (CDT) Temp. Heat Index Dew Point Humidity Pressure Visibility Wind Dir Wind Speed Gust Speed Precip Events Conditions
12:35 AM 80.6 °F 85.7 °F 74.1 °F 81% 30.08 in 10.0 mi SE 12.7 mph - N/A   Clear
1:15 AM 80.4 °F 85.3 °F 73.9 °F 81% 30.08 in 10.0 mi SE 13.8 mph - N/A   Clear
1:35 AM 80.4 °F 85.1 °F 73.6 °F 80% 30.07 in 10.0 mi SE 12.7 mph 16.1 mph N/A   Clear
2:15 AM 80.6 °F 85.5 °F 73.8 °F 80% 30.06 in 10.0 mi SE 15.0 mph 20.7 mph N/A   Scattered Clouds
2:35 AM 80.8 °F 85.8 °F 73.6 °F 79% 30.06 in 10.0 mi SE 13.8 mph 20.7 mph N/A   Scattered Clouds
2:55 AM 80.6 °F 85.4 °F 73.6 °F 79% 30.06 in 10.0 mi SSE 15.0 mph 20.7 mph N/A   Clear
3:15 AM 80.6 °F 85.0 °F 72.9 °F 77% 30.05 in 10.0 mi SSE 13.8 mph - N/A   Clear
3:35 AM 80.6 °F 85.0 °F 72.9 °F 77% 30.04 in 10.0 mi SSE 12.7 mph 18.4 mph N/A   Scattered Clouds
3:55 AM 80.2 °F 84.5 °F 72.7 °F 78% 30.04 in 10.0 mi SSE 16.1 mph 21.9 mph N/A   Scattered Clouds
4:15 AM 80.2 °F 84.3 °F 72.5 °F 77% 30.03 in 10.0 mi SSE 11.5 mph - N/A   Scattered Clouds
5:35 AM 79.9 °F - 72.1 °F 77% 30.03 in 10.0 mi SSE 13.8 mph 18.4 mph N/A   Scattered Clouds
5:55 AM 79.9 °F - 72.0 °F 77% 30.03 in 10.0 mi SSE 11.5 mph 18.4 mph N/A   Clear
6:15 AM 79.9 °F - 72.5 °F 78% 30.04 in 10.0 mi SSE 11.5 mph - N/A   Clear
6:35 AM 79.7 °F - 72.7 °F 79% 30.03 in 10.0 mi SSE 10.4 mph 16.1 mph N/A   Clear
6:55 AM 79.9 °F - 72.9 °F 79% 30.03 in 10.0 mi SSE 10.4 mph 16.1 mph N/A   Clear
7:15 AM 80.1 °F 84.1 °F 72.7 °F 78% 30.04 in 10.0 mi SSE 10.4 mph - N/A   Clear
7:55 AM 80.2 °F 84.9 °F 73.8 °F 81% 30.02 in 10.0 mi SSE 12.7 mph - N/A   Clear
8:15 AM 81.1 °F 86.8 °F 74.3 °F 80% 30.03 in 10.0 mi SSE 12.7 mph - N/A   Clear
8:55 AM 83.1 °F 89.8 °F 74.1 °F 74% 30.04 in 10.0 mi SSE 12.7 mph 20.7 mph N/A   Clear
9:55 AM 85.1 °F 94.5 °F 75.9 °F 74% 30.04 in 10.0 mi SSE 16.1 mph 23.0 mph N/A   Scattered Clouds
10:15 AM 86.2 °F 96.0 °F 75.9 °F 71% 30.05 in 10.0 mi SSE 19.6 mph 24.2 mph N/A   Clear
10:55 AM 86.0 °F 96.0 °F 76.1 °F 72% 30.05 in 10.0 mi SSE 20.7 mph 26.5 mph N/A   Mostly Cloudy
11:15 AM 86.4 °F 96.4 °F 76.1 °F 71% 30.04 in 10.0 mi SSE 20.7 mph 26.5 mph N/A   Overcast
11:35 AM 86.7 °F 96.9 °F 75.9 °F 70% 30.04 in 10.0 mi SSE 19.6 mph 28.8 mph N/A   Overcast
11:55 AM 86.9 °F 97.3 °F 76.1 °F 70% 30.03 in 10.0 mi SSE 23.0 mph 28.8 mph N/A   Overcast
12:15 PM 88.0 °F 99.1 °F 76.1 °F 68% 30.03 in 10.0 mi SSE 17.3 mph 29.9 mph N/A   Mostly Cloudy
12:35 PM 88.0 °F 98.5 °F 75.9 °F 67% 30.03 in 10.0 mi SSE 24.2 mph 29.9 mph N/A   Mostly Cloudy
12:55 PM 88.2 °F 99.0 °F 75.9 °F 67% 30.02 in 10.0 mi South 19.6 mph 29.9 mph N/A   Mostly Cloudy
1:15 PM 88.5 °F 99.4 °F 75.9 °F 66% 30.00 in 10.0 mi SSE 17.3 mph 31.1 mph N/A   Mostly Cloudy
1:35 PM 87.8 °F 98.6 °F 75.9 °F 68% 30.00 in 10.0 mi SE 21.9 mph 31.1 mph N/A   Overcast
1:55 PM 86.4 °F 96.0 °F 75.4 °F 70% 29.99 in 10.0 mi SSE 25.3 mph 31.1 mph N/A   Overcast
2:15 PM 86.5 °F 95.5 °F 75.0 °F 68% 29.98 in 10.0 mi SSE 19.6 mph 27.6 mph N/A   Overcast
2:35 PM 87.1 °F 96.8 °F 75.2 °F 68% 29.97 in 10.0 mi SSE 18.4 mph 29.9 mph N/A   Overcast
3:35 PM 87.6 °F 95.7 °F 73.8 °F 63% 29.95 in 10.0 mi SSE 23.0 mph 31.1 mph N/A   Scattered Clouds
3:55 PM 87.3 °F 95.3 °F 73.6 °F 64% 29.94 in 10.0 mi SSE 19.6 mph 29.9 mph N/A   Clear
4:15 PM 87.1 °F 94.9 °F 73.6 °F 64% 29.94 in 10.0 mi SSE 25.3 mph 31.1 mph N/A   Clear
4:55 PM 87.3 °F 95.8 °F 74.3 °F 65% 29.93 in 10.0 mi SSE 16.1 mph 25.3 mph N/A   Clear
5:35 PM 86.0 °F 94.6 °F 74.7 °F 69% 29.92 in 10.0 mi SSE 21.9 mph 28.8 mph N/A   Scattered Clouds
5:55 PM 85.3 °F 93.4 °F 74.7 °F 70% 29.92 in 10.0 mi SSE 19.6 mph 27.6 mph N/A   Clear
6:15 PM 84.7 °F 92.5 °F 74.5 °F 71% 29.93 in 10.0 mi SSE 18.4 mph 27.6 mph N/A   Clear
6:35 PM - - - N/A% 29.92 in 10.0 mi SSE 20.7 mph 25.3 mph N/A   Clear
6:55 PM 83.1 °F 89.8 °F 74.1 °F 74% 29.92 in 10.0 mi SSE 15.0 mph 23.0 mph N/A   Clear
7:15 PM 82.6 °F 89.1 °F 74.3 °F 76% 29.93 in 10.0 mi SSE 15.0 mph 23.0 mph N/A   Clear
7:35 PM 82.4 °F 88.7 °F 74.3 °F 76% 29.94 in 10.0 mi North - - N/A   Clear
8:15 PM 82.2 °F 88.0 °F 73.6 °F 75% 29.95 in 10.0 mi SSE 13.8 mph 18.4 mph N/A   Clear
8:55 PM 81.9 °F 87.7 °F 73.9 °F 77% 29.96 in 10.0 mi SSE 13.8 mph 23.0 mph N/A   Scattered Clouds
9:35 PM 82.4 °F 88.4 °F 73.9 °F 75% 29.97 in 10.0 mi SSE 16.1 mph 21.9 mph N/A   Scattered Clouds
9:55 PM 82.4 °F 88.4 °F 73.9 °F 75% 29.97 in 10.0 mi SSE 13.8 mph 23.0 mph N/A   Scattered Clouds
10:15 PM 82.0 °F 87.9 °F 73.9 °F 76% 29.97 in 10.0 mi SSE 16.1 mph 23.0 mph N/A   Clear
10:55 PM 81.9 °F 87.3 °F 73.4 °F 75% 29.97 in 10.0 mi SSE 15.0 mph 20.7 mph N/A   Clear
11:35 PM 81.5 °F 86.9 °F 73.8 °F 77% 29.97 in 10.0 mi SSE 15.0 mph 18.4 mph N/A   Clear